Location: Memphis
(29.8667°N, 31.2500°E)
Time: 23:47:12
(UTC+00:00)

Daily predictions for brighter satellites

Satellite Brightness Start Highest point End
(mag) Time Altitude Azimuth Time Altitude Azimuth Time Altitude Azimuth
NOSS 3-4 (A) 3.5 17:14:37 10° S 17:19:32 40° ESE 17:24:34 10° NE
NOSS 3-4 (C) 3.5 17:14:45 10° S 17:19:39 39° ESE 17:24:39 10° NE
Cosmos 1461 3.5 17:16:54 10° SW 17:20:30 56° WNW 17:24:15 10° NNE
Cosmos 1766 Rocket 3.6 17:16:35 10° N 17:20:53 84° W 17:25:10 10° S
USA 186 3.4 17:20:56 10° ESE 17:22:32 14° ENE 17:24:09 10° NE
Cosmos 1420 Rocket 4.1 17:17:32 10° N 17:22:42 62° ENE 17:27:48 10° SSE
Cosmos 1766 3.5 17:21:26 10° N 17:24:41 39° E 17:27:56 10° SSE
Cosmos 1821 Rocket 4.3 17:21:23 10° N 17:27:31 73° W 17:33:43 10° S
SJ-6B 3.1 17:24:05 10° S 17:27:49 68° W 17:31:34 10° NNW
OAO 3 Rocket 3.3 17:24:03 10° WNW 17:28:55 80° NNE 17:33:45 10° ESE
Meteor 2-4 Rocket 3.9 17:23:35 10° S 17:29:23 67° E 17:35:16 10° NNE
SL-08 R/B 3.2 17:29:53 10° NNE 17:34:31 83° ESE 17:39:05 10° S
Cosmos 1818 4.5 17:32:17 10° SSE 17:36:45 27° ESE 17:41:14 10° NE
Cosmos 1934 Rocket 4.4 17:30:50 10° N 17:36:55 46° E 17:42:55 10° SSE
COSMOS 2428 3.9 17:36:04 10° N 17:40:48 26° ENE 17:45:02 12° ESE
Delta 2 Rocket 4.4 17:38:15 10° WNW 17:41:55 39° N 17:45:48 10° ENE
Cosmos 2297 Rocket 2.4 17:38:41 10° S 17:44:04 48° ESE 17:49:30 10° NNE
Cosmos 1048 Rocket 4.0 17:43:17 10° SSW 17:48:22 88° WNW 17:53:32 10° NNE
GENESIS II 3.3 17:46:16 10° NNW 17:49:08 70° ENE 17:51:10 17° SE
USA 305 2.6 17:50:14 10° SW 17:54:06 88° NW 17:58:01 10° NE
Cosmos 1408 Rocket 3.6 17:51:58 10° N 17:56:09 54° E 17:59:45 14° SSE
Cosmos 1500 Rocket 3.9 17:54:01 10° N 17:58:17 46° E 18:01:31 16° SSE
Sich 1 3.0 17:54:57 10° N 17:59:03 61° E 18:02:33 14° SSE
CZ-4B R/B 3.9 17:59:48 16° SE 18:03:30 47° ENE 18:08:24 10° N
IUS-18 SRM-1 3.5 17:50:44 10° WSW 18:05:32 69° S 18:08:25 17° E
Delta 198 3.7 18:05:11 10° WSW 18:08:46 36° S 18:10:07 26° SE
Cosmos 2322 Rocket 4.3 18:05:08 10° NW 18:09:23 22° W 18:13:36 10° SSW
Cosmos 2360 Rocket 4.0 18:05:55 10° NW 18:10:32 27° WSW 18:15:11 10° SSW
Cosmos 2227 Rocket 2.7 18:07:49 11° SSE 18:12:42 36° ESE 18:17:47 10° NE
Centaur D AC-28 4.5 18:05:56 10° W 18:12:47 63° S 19:36:19 10° ESE
Meteor PRIRODA 3.8 18:12:36 30° E 18:13:04 32° ENE 18:15:43 10° N
Cosmos 1908 3.6 18:10:01 10° NNW 18:13:06 47° W 18:15:53 12° SSW
Meteor 2-15 Rocket 4.4 18:08:16 10° N 18:14:19 68° E 18:19:09 16° SSE
Cosmos 2322 3.7 18:10:59 10° NNW 18:16:41 68° ENE 18:20:19 23° SSE
Terra 2.8 18:15:34 23° ESE 18:17:22 30° ENE 18:21:25 10° NNE
Cosmos 1452 Rocket 4.5 18:12:50 10° N 18:17:29 31° ENE 18:19:36 23° ESE
Cosmos 2263 Rocket 3.7 18:18:12 17° E 18:18:12 17° E 18:21:21 10° ENE
SPOT 5 2.6 18:15:05 20° SSE 18:18:09 79° ENE 18:22:45 10° N
CZ-4 R/B 2.8 18:16:14 10° SSW 18:19:40 32° W 18:23:05 10° NW
Cosmos 1805 Rocket 3.4 18:17:38 10° N 18:21:58 88° E 18:24:45 21° S
SL-24 DEB 4.1 18:20:48 20° SSE 18:23:53 76° E 18:28:29 10° N
Helios 1A 2.7 18:20:12 10° NNE 18:24:07 69° ESE 18:26:36 21° S
NOSS 3-2 (C) 4.3 18:16:50 10° NNW 18:24:57 77° ENE 18:31:14 23° SE
CZ-4B R/B 3.2 18:22:32 16° S 18:26:49 79° WSW 18:32:07 10° NNW
FUSE 4.3 18:22:08 10° W 18:27:14 47° S 18:29:19 31° SE
RESURS DK-1 3.6 18:28:18 24° E 18:28:18 24° E 18:30:42 10° NE
Okean O Rocket 1.5 18:29:24 34° SSE 18:31:09 66° ENE 18:35:25 10° N
Meteor 2-8 Rocket 4.4 18:26:32 10° N 18:32:38 74° E 18:36:23 25° SSE
Cosmos 1151 Rocket 4.5 18:30:03 10° SSW 18:33:55 35° W 18:37:51 10° NNW
Cosmos 2219 4.4 18:38:47 23° E 18:38:47 23° E 18:42:28 10° NE
Helios 1B rocket 2.2 18:37:16 39° S 18:38:31 75° WSW 18:42:12 10° NNW
ERS-1 Rocket 3.0 18:37:21 35° SE 18:39:23 65° ENE 18:44:20 10° N
NOSS 2-2 (E) 4.3 18:34:45 10° NNW 18:39:30 60° ENE 18:42:11 33° SE
Cosmos 1535 Rocket 4.5 18:33:25 10° N 18:39:33 80° W 18:43:56 20° S
CZ-4B R/B 2.9 18:38:49 35° SSW 18:40:07 60° WSW 18:43:35 10° NNW
Resurs 01 Rocket 4.4 18:38:54 10° WSW 18:40:45 12° W 18:42:36 10° WNW
Cosmos 1300 2.0 18:38:51 10° N 18:41:57 85° ENE 18:41:57 85° ENE
Cosmos 921 Rocket 2.8 18:41:01 37° S 18:42:36 73° ESE 18:46:51 10° NNE
Cosmos 1605 Rocket 3.9 18:37:03 10° N 18:43:11 85° W 18:47:02 24° S
IRS-1A Rocket 4.4 18:41:02 34° SE 18:43:22 58° ENE 18:48:51 10° N
Cosmos 1743 Rocket 3.8 18:41:48 10° NNW 18:46:04 65° W 18:47:57 32° SSW
Cosmos 2219 Rocket 4.1 18:43:09 10° NW 18:47:27 23° WSW 18:51:43 10° SSW
SL-14 R/B 3.1 18:52:14 70° ESE 18:52:21 71° E 18:56:15 10° N
In-Cosmos 22 4.3 18:49:04 17° SSW 18:53:39 78° W 18:59:22 10° N
USA 215 3.3 18:55:30 35° SSE 18:58:25 69° SW 19:04:55 10° NW
Cosmos 1459 Rocket 4.5 18:58:03 10° N 19:04:00 41° E 19:04:58 39° ESE
Sakura Rocket 3.0 19:00:45 10° W 19:04:52 74° S 19:05:10 71° SSE
Cosmos 2237 Rocket 2.3 19:00:19 10° N 19:05:54 57° ENE 19:06:54 50° ESE
SL-4 R/B 4.4 19:14:01 14° NE 19:14:01 14° NE 19:14:33 10° NE
OAO 3 Rocket 4.3 19:07:38 10° W 19:11:30 30° SW 19:11:30 30° SW
Okean-O 3.2 19:12:52 44° SW 19:13:40 51° W 19:17:56 10° NNW
Meteor 2-10 Rocket 3.5 19:08:22 10° N 19:14:00 89° ENE 19:15:04 60° S
DNEPR-1 R/B 4.3 19:08:38 10° SSW 19:15:28 89° ESE 19:21:03 10° NNE
Cosmos 1666 Rocket 3.6 19:13:20 10° N 19:17:46 74° W 19:17:54 73° WSW
Delta 2 Rocket 3.8 19:17:16 10° WNW 19:20:29 55° WNW 19:20:29 55° WNW
Meteor 1-22 Rocket 4.4 19:17:47 10° N 19:22:58 51° ENE 19:22:58 51° ENE
COSMOS 2428 4.0 19:19:57 10° NW 19:24:57 32° WSW 19:27:02 25° SW
BREEZE-M DEB (TANK) 3.6 19:16:53 10° NW 19:26:20 46° NNE 19:27:01 43° NE
Cosmos 1633 Rocket 3.3 19:23:38 10° NNW 19:27:33 64° WNW 19:27:33 64° WNW
Lacrosse 4 Rocket 3.3 19:26:08 10° N 19:28:31 22° NE 19:28:31 22° NE
Ariane Rocket 3.1 19:29:52 63° ENE 19:29:52 63° ENE 19:34:38 10° N
SPOT 3 Rocket 3.4 19:34:02 77° NE 19:34:02 77° NE 19:39:00 10° N
Cosmos 1269 Rocket 4.4 19:40:14 54° NE 19:40:14 54° NE 19:44:24 10° NNE
ARIANE 6 FM1 Upper Stage 3.7 19:37:11 10° NNW 19:40:10 45° NW 19:40:10 45° NW
Cosmos 1470 Rocket 4.5 19:44:06 10° NNW 19:47:20 46° NW 19:47:20 46° NW
ATLAS 2A CENTAUR R/B 4.1 19:46:11 10° W 19:50:35 23° WSW 19:50:35 23° WSW
Cosmos 1302 Rocket 4.4 19:47:04 10° NNW 19:51:53 59° W 19:51:53 59° W
Cosmos 2173 Rocket 4.0 19:46:20 10° NNW 19:52:26 68° W 19:52:58 65° SW
Meteor 1-23 Rocket 4.3 19:53:18 70° W 19:53:20 70° W 19:58:54 10° N
Terra 3.8 19:54:12 19° WSW 19:54:50 20° W 19:58:15 10° NW
Centaur D-1A AC-32 4.1 19:10:02 10° WSW 19:55:50 58° S 19:56:54 55° SSE
Cosmos 2227 Rocket 4.3 19:52:16 10° WSW 19:56:43 24° WNW 20:01:10 10° N
Cosmos 1992 Rocket 4.5 19:54:08 10° NNW 19:58:12 55° N 19:58:12 55° N
Meteor 1-21 4.3 19:59:50 74° NNW 19:59:50 74° NNW 20:05:08 10° N
Cosmos 1864 Rocket 4.4 19:53:16 10° N 19:59:22 87° N 19:59:22 87° N
ATLAS CENTAUR R/B 3.5 19:56:16 10° NNW 19:57:42 21° N 19:57:42 21° N
SL-16 R/B 3.0 19:55:15 10° N 19:59:47 41° NE 19:59:47 41° NE
Cosmos 2263 Rocket 3.0 19:59:46 39° WSW 20:01:11 47° WNW 20:06:39 10° N
Cosmos 2233 Rocket 4.3 19:59:33 10° N 20:05:03 55° NE 20:05:03 55° NE
COSMOS 2455 3.1 20:01:50 10° NNW 20:07:19 62° W 20:07:19 62° W
Cosmos 1725 Rocket 4.1 20:11:15 10° N 20:17:14 70° WNW 20:17:14 70° WNW
Cosmos 2219 4.5 20:20:35 32° W 20:21:52 36° WNW 20:27:07 10° N
Cosmos 2237 Rocket 4.5 20:46:32 10° WNW 20:48:43 14° W 20:48:43 14° W
Cosmos 1844 Rocket 4.0 21:13:11 37° N 21:13:11 37° N 21:16:35 10° NNE
USA 234 4.2 21:12:42 10° NE 21:16:31 38° NE 21:16:31 38° NE
ATLAS 2AS CENTAUR R/B 3.3 21:37:43 54° NNE 21:37:43 54° NNE 21:42:56 10° NNE
SL-12 R/B(2) 4.2 21:48:12 73° NNE 21:48:12 73° NNE 21:56:05 10° NNE
Cosmos 2344 4.3 21:41:15 10° NNW 21:50:26 80° ENE 21:52:06 69° SE
SeaSat 1 4.5 21:57:55 24° NNE 21:57:55 24° NNE 22:00:14 10° N
Cosmos 2278 Rocket 4.2 22:29:17 21° ENE 22:29:17 21° ENE 22:31:39 10° NE
CZ-2C R/B 4.3 22:33:05 28° NE 22:33:05 28° NE 22:36:18 10° N
Cosmos 1943 Rocket 4.1 22:36:09 21° ENE 22:36:09 21° ENE 22:38:25 10° NE
SJ 16-02 4.2 22:38:57 13° NNW 22:38:57 13° NNW 22:39:35 10° NNW
USA 59 Rocket 2.8 23:08:01 10° NNW 23:08:26 13° NNW 23:08:26 13° NNW
ADEOS II 4.4 23:16:09 10° ENE 23:18:53 14° E 23:19:00 14° E
ATLAS 3B R/B 4.0 23:12:52 10° NNW 23:20:10 41° NE 23:26:17 13° ESE
Cosmos 2026 Rocket 4.4 23:21:59 57° ENE 23:21:59 57° ENE 23:27:44 10° NNE
FENGYUN 3A 4.4 23:30:18 10° NNE 23:34:43 47° ENE 23:34:43 47° ENE
Atlas Centaur 2 3.5 23:40:34 43° SE 23:40:34 43° SE 23:47:11 10° E
H-2A R/B 3.9 23:38:45 10° NNE 23:40:40 27° NNE 23:40:40 27° NNE
IDEFIX/ARIANE 42P 3.2 23:37:31 10° N 23:41:28 51° N 23:41:28 51° N
Milstar 3 4.5 23:23:28 10° W 23:43:11 48° SW 23:53:29 10° SE
Cosmos 1833 Rocket 3.4 23:40:18 10° NNW 23:44:09 45° NNW 23:44:09 45° NNW
ATLAS 5 CENTAUR R/B 4.0 23:54:37 13° NE 23:54:37 13° NE 23:55:00 10° NE
MSX 4.0 23:46:21 10° N 23:51:24 62° NW 23:51:24 62° NW
